Year,Month,Day,Hour,Minute,Value (Times are PST for temperature in C)
2010,04,11,00,00,2.50
2010,04,11,00,01,2.50
2010,04,11,00,02,2.50
2010,04,11,00,03,2.50
2010,04,11,00,04,2.40
2010,04,11,00,05,2.40
2010,04,11,00,06,2.40
2010,04,11,00,07,2.40
2010,04,11,00,08,2.40
2010,04,11,00,09,2.40
2010,04,11,00,10,2.40
2010,04,11,00,11,2.40
2010,04,11,00,12,2.30
2010,04,11,00,13,2.30
2010,04,11,00,14,2.30
2010,04,11,00,15,2.30
2010,04,11,00,16,2.30
2010,04,11,00,17,2.30
2010,04,11,00,18,2.30
2010,04,11,00,19,2.30
2010,04,11,00,20,2.30
2010,04,11,00,21,2.30
2010,04,11,00,22,2.30
2010,04,11,00,23,2.40
2010,04,11,00,24,2.40
2010,04,11,00,25,2.40
2010,04,11,00,26,2.40
2010,04,11,00,27,2.40
2010,04,11,00,28,2.40
2010,04,11,00,29,2.40
2010,04,11,00,30,2.40
2010,04,11,00,31,2.30
2010,04,11,00,32,2.30
2010,04,11,00,33,2.30
2010,04,11,00,34,2.30
2010,04,11,00,35,2.40
2010,04,11,00,36,2.40
2010,04,11,00,37,2.40
2010,04,11,00,38,2.40
2010,04,11,00,39,2.40
2010,04,11,00,40,2.40
2010,04,11,00,41,2.40
2010,04,11,00,42,2.40
2010,04,11,00,43,2.40
2010,04,11,00,44,2.40
2010,04,11,00,45,2.40
2010,04,11,00,46,2.40
2010,04,11,00,47,2.40
2010,04,11,00,48,2.40
2010,04,11,00,49,2.40
2010,04,11,00,50,2.40
2010,04,11,00,51,2.40
2010,04,11,00,52,2.40
2010,04,11,00,53,2.40
2010,04,11,00,54,2.30
2010,04,11,00,55,2.30
2010,04,11,00,56,2.30
2010,04,11,00,57,2.30
2010,04,11,00,58,2.30
2010,04,11,00,59,2.30
2010,04,11,01,00,2.30
2010,04,11,01,01,2.30
2010,04,11,01,02,2.30
2010,04,11,01,03,2.30
2010,04,11,01,04,2.30
2010,04,11,01,05,2.30
2010,04,11,01,06,2.30
2010,04,11,01,07,2.30
2010,04,11,01,08,2.30
2010,04,11,01,09,2.30
2010,04,11,01,10,2.30
2010,04,11,01,11,2.30
2010,04,11,01,12,2.30
2010,04,11,01,13,2.30
2010,04,11,01,14,2.30
2010,04,11,01,15,2.30
2010,04,11,01,16,2.30
2010,04,11,01,17,2.30
2010,04,11,01,18,2.30
2010,04,11,01,19,2.30
2010,04,11,01,20,2.30
2010,04,11,01,21,2.30
2010,04,11,01,22,2.30
2010,04,11,01,23,2.30
2010,04,11,01,24,2.30
2010,04,11,01,25,2.30
2010,04,11,01,26,2.30
2010,04,11,01,27,2.30
2010,04,11,01,28,2.30
2010,04,11,01,29,2.30
2010,04,11,01,30,2.30
2010,04,11,01,31,2.40
2010,04,11,01,32,2.40
2010,04,11,01,33,2.40
2010,04,11,01,34,2.40
2010,04,11,01,35,2.40
2010,04,11,01,36,2.40
2010,04,11,01,37,2.40
2010,04,11,01,38,2.40
2010,04,11,01,39,2.40
2010,04,11,01,40,2.40
2010,04,11,01,41,2.40
2010,04,11,01,42,2.40
2010,04,11,01,43,2.40
2010,04,11,01,44,2.50
2010,04,11,01,45,2.50
2010,04,11,01,46,2.50
2010,04,11,01,47,2.50
2010,04,11,01,48,2.50
2010,04,11,01,49,2.60
2010,04,11,01,50,2.60
2010,04,11,01,51,2.60
2010,04,11,01,52,2.60
2010,04,11,01,53,2.60
2010,04,11,01,54,2.60
2010,04,11,01,55,2.60
2010,04,11,01,56,2.60
2010,04,11,01,57,2.60
2010,04,11,01,58,2.60
2010,04,11,01,59,2.60
2010,04,11,02,00,2.60
2010,04,11,02,01,2.60
2010,04,11,02,02,2.60
2010,04,11,02,03,2.60
2010,04,11,02,04,2.60
2010,04,11,02,05,2.60
2010,04,11,02,06,2.50
2010,04,11,02,07,2.50
2010,04,11,02,08,2.50
2010,04,11,02,09,2.50
2010,04,11,02,10,2.50
2010,04,11,02,11,2.50
2010,04,11,02,12,2.50
2010,04,11,02,13,2.50
2010,04,11,02,14,2.50
2010,04,11,02,15,2.50
2010,04,11,02,16,2.50
2010,04,11,02,17,2.50
2010,04,11,02,18,2.50
2010,04,11,02,19,2.50
2010,04,11,02,20,2.50
2010,04,11,02,21,2.50
2010,04,11,02,22,2.60
2010,04,11,02,23,2.60
2010,04,11,02,24,2.60
2010,04,11,02,25,2.60
2010,04,11,02,26,2.60
2010,04,11,02,27,2.70
2010,04,11,02,28,2.70
2010,04,11,02,29,2.70
2010,04,11,02,30,2.70
2010,04,11,02,31,2.70
2010,04,11,02,32,2.70
2010,04,11,02,33,2.70
2010,04,11,02,34,2.70
2010,04,11,02,35,2.70
2010,04,11,02,36,2.70
2010,04,11,02,37,2.70
2010,04,11,02,38,2.70
2010,04,11,02,39,2.70
2010,04,11,02,40,2.80
2010,04,11,02,41,2.80
2010,04,11,02,42,2.80
2010,04,11,02,43,2.80
2010,04,11,02,44,2.80
2010,04,11,02,45,2.80
2010,04,11,02,46,2.80
2010,04,11,02,47,2.80
2010,04,11,02,48,2.80
2010,04,11,02,49,2.80
2010,04,11,02,50,2.80
2010,04,11,02,51,2.80
2010,04,11,02,52,2.70
2010,04,11,02,53,2.70
2010,04,11,02,54,2.70
2010,04,11,02,55,2.70
2010,04,11,02,56,2.70
2010,04,11,02,57,2.70
2010,04,11,02,58,2.70
2010,04,11,02,59,2.60
2010,04,11,03,00,2.60
2010,04,11,03,01,2.60
2010,04,11,03,02,2.60
2010,04,11,03,03,2.60
2010,04,11,03,04,2.60
2010,04,11,03,05,2.60
2010,04,11,03,06,2.60
2010,04,11,03,07,2.60
2010,04,11,03,08,2.60
2010,04,11,03,09,2.60
2010,04,11,03,10,2.60
2010,04,11,03,11,2.60
2010,04,11,03,12,2.50
2010,04,11,03,13,2.60
2010,04,11,03,14,2.60
2010,04,11,03,15,2.60
2010,04,11,03,16,2.60
2010,04,11,03,17,2.60
2010,04,11,03,18,2.60
2010,04,11,03,19,2.50
2010,04,11,03,20,2.50
2010,04,11,03,21,2.50
2010,04,11,03,22,2.40
2010,04,11,03,23,2.40
2010,04,11,03,24,2.40
2010,04,11,03,25,2.40
2010,04,11,03,26,2.40
2010,04,11,03,27,2.30
2010,04,11,03,28,2.30
2010,04,11,03,29,2.30
2010,04,11,03,30,2.30
2010,04,11,03,31,2.30
2010,04,11,03,32,2.20
2010,04,11,03,33,2.20
2010,04,11,03,34,2.20
2010,04,11,03,35,2.20
2010,04,11,03,36,2.20
2010,04,11,03,37,2.20
2010,04,11,03,38,2.20
2010,04,11,03,39,2.20
2010,04,11,03,40,2.20
2010,04,11,03,41,2.10
2010,04,11,03,42,2.10
2010,04,11,03,43,2.10
2010,04,11,03,44,2.10
2010,04,11,03,45,2.10
2010,04,11,03,46,2.10
2010,04,11,03,47,2.10
2010,04,11,03,48,2.10
2010,04,11,03,49,2.10
2010,04,11,03,50,2.10
2010,04,11,03,51,2.10
2010,04,11,03,52,2.10
2010,04,11,03,53,2.10
2010,04,11,03,54,2.10
2010,04,11,03,55,2.10
2010,04,11,03,56,2.10
2010,04,11,03,57,2.00
2010,04,11,03,58,2.00
2010,04,11,03,59,2.00
2010,04,11,04,00,2.00
2010,04,11,04,01,2.00
2010,04,11,04,02,2.00
2010,04,11,04,03,2.00
2010,04,11,04,04,2.00
2010,04,11,04,05,2.00
2010,04,11,04,06,2.00
2010,04,11,04,07,2.00
2010,04,11,04,08,2.00
2010,04,11,04,09,2.00
2010,04,11,04,10,2.00
2010,04,11,04,11,2.00
2010,04,11,04,12,2.00
2010,04,11,04,13,2.00
2010,04,11,04,14,2.00
2010,04,11,04,15,2.00
2010,04,11,04,16,2.00
2010,04,11,04,17,2.00
2010,04,11,04,18,2.00
2010,04,11,04,19,2.00
2010,04,11,04,20,2.00
2010,04,11,04,21,1.90
2010,04,11,04,22,1.90
2010,04,11,04,23,1.90
2010,04,11,04,24,1.90
2010,04,11,04,25,1.90
2010,04,11,04,26,1.90
2010,04,11,04,27,1.90
2010,04,11,04,28,1.90
2010,04,11,04,29,1.90
2010,04,11,04,30,1.90
2010,04,11,04,31,1.90
2010,04,11,04,32,1.90
2010,04,11,04,33,1.90
2010,04,11,04,34,1.90
2010,04,11,04,35,2.00
2010,04,11,04,36,2.00
2010,04,11,04,37,2.00
2010,04,11,04,38,2.00
2010,04,11,04,39,2.00
2010,04,11,04,40,2.00
2010,04,11,04,41,2.00
2010,04,11,04,42,2.00
2010,04,11,04,43,2.00
2010,04,11,04,44,2.00
2010,04,11,04,45,2.00
2010,04,11,04,46,2.00
2010,04,11,04,47,2.00
2010,04,11,04,48,1.90
2010,04,11,04,49,2.00
2010,04,11,04,50,2.00
2010,04,11,04,51,2.00
2010,04,11,04,52,2.00
2010,04,11,04,53,2.00
2010,04,11,04,54,2.00
2010,04,11,04,55,1.90
2010,04,11,04,56,1.90
2010,04,11,04,57,1.90
2010,04,11,04,58,1.90
2010,04,11,04,59,1.90
2010,04,11,05,00,1.90
2010,04,11,05,01,1.90
2010,04,11,05,02,1.90
2010,04,11,05,03,1.90
2010,04,11,05,04,1.90
2010,04,11,05,05,1.90
2010,04,11,05,06,1.90
2010,04,11,05,07,1.80
2010,04,11,05,08,1.80
2010,04,11,05,09,1.80
2010,04,11,05,10,1.80
2010,04,11,05,11,1.80
2010,04,11,05,12,1.80
2010,04,11,05,13,1.80
2010,04,11,05,14,1.80
2010,04,11,05,15,1.80
2010,04,11,05,16,1.80
2010,04,11,05,17,1.80
2010,04,11,05,18,1.80
2010,04,11,05,19,1.80
2010,04,11,05,20,1.80
2010,04,11,05,21,1.80
2010,04,11,05,22,1.70
2010,04,11,05,23,1.70
2010,04,11,05,24,1.70
2010,04,11,05,25,1.70
2010,04,11,05,26,1.70
2010,04,11,05,27,1.70
2010,04,11,05,28,1.70
2010,04,11,05,29,1.60
2010,04,11,05,30,1.60
2010,04,11,05,31,1.60
2010,04,11,05,32,1.60
2010,04,11,05,33,1.60
2010,04,11,05,34,1.50
2010,04,11,05,35,1.50
2010,04,11,05,36,1.40
2010,04,11,05,37,1.40
2010,04,11,05,38,1.40
2010,04,11,05,39,1.40
2010,04,11,05,40,1.40
2010,04,11,05,41,1.40
2010,04,11,05,42,1.40
2010,04,11,05,43,1.40
2010,04,11,05,44,1.40
2010,04,11,05,45,1.30
2010,04,11,05,46,1.30
2010,04,11,05,47,1.30
2010,04,11,05,48,1.30
2010,04,11,05,49,1.30
2010,04,11,05,50,1.40
2010,04,11,05,51,1.40
2010,04,11,05,52,1.40
2010,04,11,05,53,1.40
2010,04,11,05,54,1.40
2010,04,11,05,55,1.30
2010,04,11,05,56,1.30
2010,04,11,05,57,1.30
2010,04,11,05,58,1.30
2010,04,11,05,59,1.30
2010,04,11,06,00,1.30
2010,04,11,06,01,1.30
2010,04,11,06,02,1.30
2010,04,11,06,03,1.30
2010,04,11,06,04,1.30
2010,04,11,06,05,1.30
2010,04,11,06,06,1.30
2010,04,11,06,07,1.30
2010,04,11,06,08,1.30
2010,04,11,06,09,1.30
2010,04,11,06,10,1.30
2010,04,11,06,11,1.30
2010,04,11,06,12,1.30
2010,04,11,06,13,1.30
2010,04,11,06,14,1.30
2010,04,11,06,15,1.30
2010,04,11,06,16,1.30
2010,04,11,06,17,1.30
2010,04,11,06,18,1.30
2010,04,11,06,19,1.30
2010,04,11,06,20,1.30
2010,04,11,06,21,1.30
2010,04,11,06,22,1.30
2010,04,11,06,23,1.30
2010,04,11,06,24,1.30
2010,04,11,06,25,1.30
2010,04,11,06,26,1.30
2010,04,11,06,27,1.40
2010,04,11,06,28,1.40
2010,04,11,06,29,1.40
2010,04,11,06,30,1.40
2010,04,11,06,31,1.40
2010,04,11,06,32,1.40
2010,04,11,06,33,1.50
2010,04,11,06,34,1.50
2010,04,11,06,35,1.50
2010,04,11,06,36,1.60
2010,04,11,06,37,1.60
2010,04,11,06,38,1.60
2010,04,11,06,39,1.60
2010,04,11,06,40,1.60
2010,04,11,06,41,1.60
2010,04,11,06,42,1.60
2010,04,11,06,43,1.70
2010,04,11,06,44,1.70
2010,04,11,06,45,1.70
2010,04,11,06,46,1.70
2010,04,11,06,47,1.70
2010,04,11,06,48,1.70
2010,04,11,06,49,1.70
2010,04,11,06,50,1.80
2010,04,11,06,51,1.80
2010,04,11,06,52,1.80
2010,04,11,06,53,1.80
2010,04,11,06,54,1.80
2010,04,11,06,55,1.80
2010,04,11,06,56,1.80
2010,04,11,06,57,1.80
2010,04,11,06,58,1.80
2010,04,11,06,59,1.80
2010,04,11,07,00,1.80
2010,04,11,07,01,1.90
2010,04,11,07,02,1.90
2010,04,11,07,03,1.90
2010,04,11,07,04,1.90
2010,04,11,07,05,1.90
2010,04,11,07,06,1.90
2010,04,11,07,07,1.90
2010,04,11,07,08,1.90
2010,04,11,07,09,1.90
2010,04,11,07,10,1.90
2010,04,11,07,11,1.90
2010,04,11,07,12,1.90
2010,04,11,07,13,1.90
2010,04,11,07,14,2.00
2010,04,11,07,15,2.00
2010,04,11,07,16,2.00
2010,04,11,07,17,2.00
2010,04,11,07,18,2.00
2010,04,11,07,19,2.00
2010,04,11,07,20,2.10
2010,04,11,07,21,2.10
2010,04,11,07,22,2.10
2010,04,11,07,23,2.20
2010,04,11,07,24,2.20
2010,04,11,07,25,2.20
2010,04,11,07,26,2.30
2010,04,11,07,27,2.30
2010,04,11,07,28,2.40
2010,04,11,07,29,2.40
2010,04,11,07,30,2.40
2010,04,11,07,31,2.50
2010,04,11,07,32,2.60
2010,04,11,07,33,2.60
2010,04,11,07,34,2.60
2010,04,11,07,35,2.60
2010,04,11,07,36,2.70
2010,04,11,07,37,2.70
2010,04,11,07,38,2.70
2010,04,11,07,39,2.70
2010,04,11,07,40,2.80
2010,04,11,07,41,2.80
2010,04,11,07,42,2.80
2010,04,11,07,43,2.80
2010,04,11,07,44,2.80
2010,04,11,07,45,2.90
2010,04,11,07,46,2.90
2010,04,11,07,47,2.90
2010,04,11,07,48,2.90
2010,04,11,07,49,2.90
2010,04,11,07,50,2.90
2010,04,11,07,51,3.00
2010,04,11,07,52,3.00
2010,04,11,07,53,3.00
2010,04,11,07,54,3.00
2010,04,11,07,55,3.10
2010,04,11,07,56,3.10
2010,04,11,07,57,3.10
2010,04,11,07,58,3.10
2010,04,11,07,59,3.10
2010,04,11,08,00,3.20
2010,04,11,08,01,3.20
2010,04,11,08,02,3.20
2010,04,11,08,03,3.20
2010,04,11,08,04,3.20
2010,04,11,08,05,3.30
2010,04,11,08,06,3.30
2010,04,11,08,07,3.30
2010,04,11,08,08,3.30
2010,04,11,08,09,3.30
2010,04,11,08,10,3.30
2010,04,11,08,11,3.30
2010,04,11,08,12,3.40
2010,04,11,08,13,3.40
2010,04,11,08,14,3.40
2010,04,11,08,15,3.40
2010,04,11,08,16,3.40
2010,04,11,08,17,3.40
2010,04,11,08,18,3.50
2010,04,11,08,19,3.50
2010,04,11,08,20,3.60
2010,04,11,08,21,3.60
2010,04,11,08,22,3.60
2010,04,11,08,23,3.60
2010,04,11,08,24,3.70
2010,04,11,08,25,3.70
2010,04,11,08,26,3.70
2010,04,11,08,27,3.70
2010,04,11,08,28,3.80
2010,04,11,08,29,3.80
2010,04,11,08,30,3.80
2010,04,11,08,31,3.80
2010,04,11,08,32,3.90
2010,04,11,08,33,3.90
2010,04,11,08,34,3.90
2010,04,11,08,35,3.90
2010,04,11,08,36,4.00
2010,04,11,08,37,4.00
2010,04,11,08,38,4.00
2010,04,11,08,39,4.00
2010,04,11,08,40,4.10
2010,04,11,08,41,4.10
2010,04,11,08,42,4.10
2010,04,11,08,43,4.10
2010,04,11,08,44,4.20
2010,04,11,08,45,4.20
2010,04,11,08,46,4.20
2010,04,11,08,47,4.20
2010,04,11,08,48,4.30
2010,04,11,08,49,4.30
2010,04,11,08,50,4.30
2010,04,11,08,51,4.40
2010,04,11,08,52,4.40
2010,04,11,08,53,4.50
2010,04,11,08,54,4.50
2010,04,11,08,55,4.60
2010,04,11,08,56,4.70
2010,04,11,08,57,4.70
2010,04,11,08,58,4.80
2010,04,11,08,59,4.90
2010,04,11,09,00,4.90
2010,04,11,09,01,5.00
2010,04,11,09,02,5.00
2010,04,11,09,03,5.10
2010,04,11,09,04,5.10
2010,04,11,09,05,5.20
2010,04,11,09,06,5.20
2010,04,11,09,07,5.30
2010,04,11,09,08,5.30
2010,04,11,09,09,5.30
2010,04,11,09,10,5.40
2010,04,11,09,11,5.50
2010,04,11,09,12,5.50
2010,04,11,09,13,5.60
2010,04,11,09,14,5.60
2010,04,11,09,15,5.70
2010,04,11,09,16,5.70
2010,04,11,09,17,5.80
2010,04,11,09,18,5.90
2010,04,11,09,19,5.90
2010,04,11,09,20,6.00
2010,04,11,09,21,6.10
2010,04,11,09,22,6.20
2010,04,11,09,23,6.20
2010,04,11,09,24,6.30
2010,04,11,09,25,6.40
2010,04,11,09,26,6.50
2010,04,11,09,27,6.60
2010,04,11,09,28,6.70
2010,04,11,09,29,6.70
2010,04,11,09,30,6.80
2010,04,11,09,31,6.90
2010,04,11,09,32,7.00
2010,04,11,09,33,7.10
2010,04,11,09,34,7.20
2010,04,11,09,35,7.30
2010,04,11,09,36,7.40
2010,04,11,09,37,7.50
2010,04,11,09,38,7.60
2010,04,11,09,39,7.70
2010,04,11,09,40,7.80
2010,04,11,09,41,7.90
2010,04,11,09,42,7.90
2010,04,11,09,43,8.00
2010,04,11,09,44,8.10
2010,04,11,09,45,8.20
2010,04,11,09,46,8.20
2010,04,11,09,47,8.30
2010,04,11,09,48,8.40
2010,04,11,09,49,8.40
2010,04,11,09,50,8.50
2010,04,11,09,51,8.60
2010,04,11,09,52,8.60
2010,04,11,09,53,8.70
2010,04,11,09,54,8.70
2010,04,11,09,55,8.80
2010,04,11,09,56,8.80
2010,04,11,09,57,8.80
2010,04,11,09,58,8.90
2010,04,11,09,59,9.00
2010,04,11,10,00,9.00
2010,04,11,10,01,9.10
2010,04,11,10,02,9.10
2010,04,11,10,03,9.20
2010,04,11,10,04,9.20
2010,04,11,10,05,9.30
2010,04,11,10,06,9.30
2010,04,11,10,07,9.40
2010,04,11,10,08,9.40
2010,04,11,10,09,9.50
2010,04,11,10,10,9.50
2010,04,11,10,11,9.60
2010,04,11,10,12,9.60
2010,04,11,10,13,9.70
2010,04,11,10,14,9.70
2010,04,11,10,15,9.70
2010,04,11,10,16,9.70
2010,04,11,10,17,9.80
2010,04,11,10,18,9.80
2010,04,11,10,19,9.80
2010,04,11,10,20,9.90
2010,04,11,10,21,9.90
2010,04,11,10,22,10.00
2010,04,11,10,23,10.00
2010,04,11,10,24,10.10
2010,04,11,10,25,10.10
2010,04,11,10,26,10.10
2010,04,11,10,27,10.10
2010,04,11,10,28,10.10
2010,04,11,10,29,10.10
2010,04,11,10,30,10.10
2010,04,11,10,31,10.10
2010,04,11,10,32,10.10
2010,04,11,10,33,10.20
2010,04,11,10,34,10.20
2010,04,11,10,35,10.20
2010,04,11,10,36,10.20
2010,04,11,10,37,10.30
2010,04,11,10,38,10.30
2010,04,11,10,39,10.40
2010,04,11,10,40,10.40
2010,04,11,10,41,10.40
2010,04,11,10,42,10.40
2010,04,11,10,43,10.50
2010,04,11,10,44,10.50
2010,04,11,10,45,10.50
2010,04,11,10,46,10.50
2010,04,11,10,47,10.50
2010,04,11,10,48,10.50
2010,04,11,10,49,10.50
2010,04,11,10,50,10.60
2010,04,11,10,51,10.60
2010,04,11,10,52,10.60
2010,04,11,10,53,10.70
2010,04,11,10,54,10.70
2010,04,11,10,55,10.80
2010,04,11,10,56,10.80
2010,04,11,10,57,10.80
2010,04,11,10,58,10.80
2010,04,11,10,59,10.90
2010,04,11,11,00,10.90
2010,04,11,11,01,11.00
2010,04,11,11,02,11.10
2010,04,11,11,03,11.10
2010,04,11,11,04,11.10
2010,04,11,11,05,11.20
2010,04,11,11,06,11.20
2010,04,11,11,07,11.20
2010,04,11,11,08,11.30
2010,04,11,11,09,11.40
2010,04,11,11,10,11.40
2010,04,11,11,11,11.50
2010,04,11,11,12,11.50
2010,04,11,11,13,11.60
2010,04,11,11,14,11.60
2010,04,11,11,15,11.70
2010,04,11,11,16,11.70
2010,04,11,11,17,11.70
2010,04,11,11,18,11.70
2010,04,11,11,19,11.60
2010,04,11,11,20,11.60
2010,04,11,11,21,11.50
2010,04,11,11,22,11.40
2010,04,11,11,23,11.30
2010,04,11,11,24,11.30
2010,04,11,11,25,11.30
2010,04,11,11,26,11.30
2010,04,11,11,27,11.30
2010,04,11,11,28,11.30
2010,04,11,11,29,11.30
2010,04,11,11,30,11.40
2010,04,11,11,31,11.40
2010,04,11,11,32,11.40
2010,04,11,11,33,11.40
2010,04,11,11,34,11.40
2010,04,11,11,35,11.40
2010,04,11,11,36,11.40
2010,04,11,11,37,11.30
2010,04,11,11,38,11.30
2010,04,11,11,39,11.30
2010,04,11,11,40,11.20
2010,04,11,11,41,11.20
2010,04,11,11,42,11.20
2010,04,11,11,43,11.20
2010,04,11,11,44,11.20
2010,04,11,11,45,11.20
2010,04,11,11,46,11.20
2010,04,11,11,47,11.20
2010,04,11,11,48,11.10
2010,04,11,11,49,11.10
2010,04,11,11,50,11.10
2010,04,11,11,51,11.10
2010,04,11,11,52,11.10
2010,04,11,11,53,11.10
2010,04,11,11,54,11.20
2010,04,11,11,55,11.20
2010,04,11,11,56,11.30
2010,04,11,11,57,11.30
2010,04,11,11,58,11.40
2010,04,11,11,59,11.50
2010,04,11,12,00,11.50
2010,04,11,12,01,11.40
2010,04,11,12,02,11.40
2010,04,11,12,03,11.40
2010,04,11,12,04,11.30
2010,04,11,12,05,11.30
2010,04,11,12,06,11.30
2010,04,11,12,07,11.40
2010,04,11,12,08,11.40
2010,04,11,12,09,11.40
2010,04,11,12,10,11.40
2010,04,11,12,11,11.50
2010,04,11,12,12,11.50
2010,04,11,12,13,11.60
2010,04,11,12,14,11.60
2010,04,11,12,15,11.60
2010,04,11,12,16,11.60
2010,04,11,12,17,11.60
2010,04,11,12,18,11.60
2010,04,11,12,19,11.60
2010,04,11,12,20,11.60
2010,04,11,12,21,11.60
2010,04,11,12,22,11.60
2010,04,11,12,23,11.70
2010,04,11,12,24,11.70
2010,04,11,12,25,11.70
2010,04,11,12,26,11.80
2010,04,11,12,27,11.80
2010,04,11,12,28,11.70
2010,04,11,12,29,11.70
2010,04,11,12,30,11.70
2010,04,11,12,31,11.70
2010,04,11,12,32,11.70
2010,04,11,12,33,11.70
2010,04,11,12,34,11.70
2010,04,11,12,35,11.70
2010,04,11,12,36,11.70
2010,04,11,12,37,11.70
2010,04,11,12,38,11.70
2010,04,11,12,39,11.70
2010,04,11,12,40,11.70
2010,04,11,12,41,11.60
2010,04,11,12,42,11.60
2010,04,11,12,43,11.60
2010,04,11,12,44,11.50
2010,04,11,12,45,11.50
2010,04,11,12,46,11.50
2010,04,11,12,47,11.50
2010,04,11,12,48,11.40
2010,04,11,12,49,11.40
2010,04,11,12,50,11.40
2010,04,11,12,51,11.40
2010,04,11,12,52,11.40
2010,04,11,12,53,11.40
2010,04,11,12,54,11.40
2010,04,11,12,55,11.40
2010,04,11,12,56,11.30
2010,04,11,12,57,11.30
2010,04,11,12,58,11.30
2010,04,11,12,59,11.20
2010,04,11,13,00,11.20
2010,04,11,13,01,11.20
2010,04,11,13,02,11.20
2010,04,11,13,03,11.20
2010,04,11,13,04,11.10
2010,04,11,13,05,11.10
2010,04,11,13,06,11.10
2010,04,11,13,07,11.10
2010,04,11,13,08,11.10
2010,04,11,13,09,11.10
2010,04,11,13,10,11.10
2010,04,11,13,11,11.10
2010,04,11,13,12,11.10
2010,04,11,13,13,11.10
2010,04,11,13,14,11.10
2010,04,11,13,15,11.10
2010,04,11,13,16,11.20
2010,04,11,13,17,11.20
2010,04,11,13,18,11.20
2010,04,11,13,19,11.30
2010,04,11,13,20,11.30
2010,04,11,13,21,11.30
2010,04,11,13,22,11.30
2010,04,11,13,23,11.40
2010,04,11,13,24,11.40
2010,04,11,13,25,11.40
2010,04,11,13,26,11.40
2010,04,11,13,27,11.40
2010,04,11,13,28,11.50
2010,04,11,13,29,11.50
2010,04,11,13,30,11.60
2010,04,11,13,31,11.60
2010,04,11,13,32,11.70
2010,04,11,13,33,11.70
2010,04,11,13,34,11.80
2010,04,11,13,35,11.80
2010,04,11,13,36,11.90
2010,04,11,13,37,11.90
2010,04,11,13,38,11.90
2010,04,11,13,39,11.90
2010,04,11,13,40,11.90
2010,04,11,13,41,11.90
2010,04,11,13,42,11.90
2010,04,11,13,43,11.90
2010,04,11,13,44,11.90
2010,04,11,13,45,11.90
2010,04,11,13,46,11.90
2010,04,11,13,47,11.90
2010,04,11,13,48,11.80
2010,04,11,13,49,11.80
2010,04,11,13,50,11.80
2010,04,11,13,51,11.80
2010,04,11,13,52,11.80
2010,04,11,13,53,11.80
2010,04,11,13,54,11.80
2010,04,11,13,55,11.80
2010,04,11,13,56,11.80
2010,04,11,13,57,11.80
2010,04,11,13,58,11.80
2010,04,11,13,59,11.80
2010,04,11,14,00,11.90
2010,04,11,14,01,11.90
2010,04,11,14,02,12.00
2010,04,11,14,03,12.10
2010,04,11,14,04,12.10
2010,04,11,14,05,12.20
2010,04,11,14,06,12.20
2010,04,11,14,07,12.20
2010,04,11,14,08,12.30
2010,04,11,14,09,12.30
2010,04,11,14,10,12.40
2010,04,11,14,11,12.40
2010,04,11,14,12,12.50
2010,04,11,14,13,12.60
2010,04,11,14,14,12.60
2010,04,11,14,15,12.70
2010,04,11,14,16,12.70
2010,04,11,14,17,12.80
2010,04,11,14,18,12.80
2010,04,11,14,19,12.80
2010,04,11,14,20,12.80
2010,04,11,14,21,12.80
2010,04,11,14,22,12.80
2010,04,11,14,23,12.80
2010,04,11,14,24,12.80
2010,04,11,14,25,12.80
2010,04,11,14,26,12.80
2010,04,11,14,27,12.80
2010,04,11,14,28,12.70
2010,04,11,14,29,12.60
2010,04,11,14,30,12.50
2010,04,11,14,31,12.50
2010,04,11,14,32,12.40
2010,04,11,14,33,12.40
2010,04,11,14,34,12.40
2010,04,11,14,35,12.50
2010,04,11,14,36,12.50
2010,04,11,14,37,12.50
2010,04,11,14,38,12.50
2010,04,11,14,39,12.50
2010,04,11,14,40,12.40
2010,04,11,14,41,12.40
2010,04,11,14,42,12.40
2010,04,11,14,43,12.50
2010,04,11,14,44,12.50
2010,04,11,14,45,12.50
2010,04,11,14,46,12.50
2010,04,11,14,47,12.60
2010,04,11,14,48,12.60
2010,04,11,14,49,12.70
2010,04,11,14,50,12.70
2010,04,11,14,51,12.70
2010,04,11,14,52,12.70
2010,04,11,14,53,12.80
2010,04,11,14,54,12.80
2010,04,11,14,55,12.80
2010,04,11,14,56,12.70
2010,04,11,14,57,12.70
2010,04,11,14,58,12.60
2010,04,11,14,59,12.60
2010,04,11,15,00,12.60
2010,04,11,15,01,12.60
2010,04,11,15,02,12.60
2010,04,11,15,03,12.50
2010,04,11,15,04,12.60
2010,04,11,15,05,12.60
2010,04,11,15,06,12.60
2010,04,11,15,07,12.70
2010,04,11,15,08,12.70
2010,04,11,15,09,12.80
2010,04,11,15,10,12.90
2010,04,11,15,11,12.90
2010,04,11,15,12,13.00
2010,04,11,15,13,13.00
2010,04,11,15,14,13.00
2010,04,11,15,15,13.10
2010,04,11,15,16,13.10
2010,04,11,15,17,13.10
2010,04,11,15,18,13.10
2010,04,11,15,19,13.10
2010,04,11,15,20,13.10
2010,04,11,15,21,13.00
2010,04,11,15,22,13.00
2010,04,11,15,23,13.00
2010,04,11,15,24,12.90
2010,04,11,15,25,12.90
2010,04,11,15,26,12.90
2010,04,11,15,27,12.90
2010,04,11,15,28,12.90
2010,04,11,15,29,12.90
2010,04,11,15,30,13.00
2010,04,11,15,31,13.00
2010,04,11,15,32,13.10
2010,04,11,15,33,13.10
2010,04,11,15,34,13.10
2010,04,11,15,35,13.20
2010,04,11,15,36,13.20
2010,04,11,15,37,13.30
2010,04,11,15,38,13.40
2010,04,11,15,39,13.40
2010,04,11,15,40,13.40
2010,04,11,15,41,13.40
2010,04,11,15,42,13.40
2010,04,11,15,43,13.40
2010,04,11,15,44,13.40
2010,04,11,15,45,13.30
2010,04,11,15,46,13.20
2010,04,11,15,47,13.20
2010,04,11,15,48,13.10
2010,04,11,15,49,13.00
2010,04,11,15,50,13.00
2010,04,11,15,51,12.90
2010,04,11,15,52,12.90
2010,04,11,15,53,12.90
2010,04,11,15,54,12.90
2010,04,11,15,55,12.90
2010,04,11,15,56,13.00
2010,04,11,15,57,13.00
2010,04,11,15,58,13.00
2010,04,11,15,59,13.10
2010,04,11,16,00,13.10
2010,04,11,16,01,13.20
2010,04,11,16,02,13.20
2010,04,11,16,03,13.20
2010,04,11,16,04,13.30
2010,04,11,16,05,13.30
2010,04,11,16,06,13.30
2010,04,11,16,07,13.30
2010,04,11,16,08,13.30
2010,04,11,16,09,13.30
2010,04,11,16,10,13.30
2010,04,11,16,11,13.30
2010,04,11,16,12,13.30
2010,04,11,16,13,13.30
2010,04,11,16,14,13.20
2010,04,11,16,15,13.20
2010,04,11,16,16,13.20
2010,04,11,16,17,13.20
2010,04,11,16,18,13.20
2010,04,11,16,19,13.20
2010,04,11,16,20,13.30
2010,04,11,16,21,13.30
2010,04,11,16,22,13.40
2010,04,11,16,23,13.40
2010,04,11,16,24,13.50
2010,04,11,16,25,13.50
2010,04,11,16,26,13.60
2010,04,11,16,27,13.60
2010,04,11,16,28,13.70
2010,04,11,16,29,13.70
2010,04,11,16,30,13.70
2010,04,11,16,31,13.70
2010,04,11,16,32,13.60
2010,04,11,16,33,13.60
2010,04,11,16,34,13.60
2010,04,11,16,35,13.60
2010,04,11,16,36,13.60
2010,04,11,16,37,13.60
2010,04,11,16,38,13.60
2010,04,11,16,39,13.60
2010,04,11,16,40,13.60
2010,04,11,16,41,13.50
2010,04,11,16,42,13.50
2010,04,11,16,43,13.40
2010,04,11,16,44,13.40
2010,04,11,16,45,13.40
2010,04,11,16,46,13.40
2010,04,11,16,47,13.40
2010,04,11,16,48,13.40
2010,04,11,16,49,13.40
2010,04,11,16,50,13.40
2010,04,11,16,51,13.40
2010,04,11,16,52,13.40
2010,04,11,16,53,13.50
2010,04,11,16,54,13.50
2010,04,11,16,55,13.50
2010,04,11,16,56,13.50
2010,04,11,16,57,13.50
2010,04,11,16,58,13.50
2010,04,11,16,59,13.50
2010,04,11,17,00,13.50
2010,04,11,17,01,13.50
2010,04,11,17,02,13.60
2010,04,11,17,03,13.60
2010,04,11,17,04,13.60
2010,04,11,17,05,13.60
2010,04,11,17,06,13.60
2010,04,11,17,07,13.60
2010,04,11,17,08,13.60
2010,04,11,17,09,13.60
2010,04,11,17,10,13.50
2010,04,11,17,11,13.50
2010,04,11,17,12,13.50
2010,04,11,17,13,13.60
2010,04,11,17,14,13.60
2010,04,11,17,15,13.60
2010,04,11,17,16,13.60
2010,04,11,17,17,13.60
2010,04,11,17,18,13.60
2010,04,11,17,19,13.60
2010,04,11,17,20,13.60
2010,04,11,17,21,13.60
2010,04,11,17,22,13.60
2010,04,11,17,23,13.60
2010,04,11,17,24,13.60
2010,04,11,17,25,13.50
2010,04,11,17,26,13.50
2010,04,11,17,27,13.50
2010,04,11,17,28,13.50
2010,04,11,17,29,13.50
2010,04,11,17,30,13.50
2010,04,11,17,31,13.50
2010,04,11,17,32,13.50
2010,04,11,17,33,13.50
2010,04,11,17,34,13.50
2010,04,11,17,35,13.50
2010,04,11,17,36,13.50
2010,04,11,17,37,13.50
2010,04,11,17,38,13.40
2010,04,11,17,39,13.40
2010,04,11,17,40,13.40
2010,04,11,17,41,13.40
2010,04,11,17,42,13.30
2010,04,11,17,43,13.30
2010,04,11,17,44,13.30
2010,04,11,17,45,13.30
2010,04,11,17,46,13.20